CW0406 Weather Reports


Display with metric or nautical units.
time (UTC)temp
F
wind
direction
speed
MPH
gust
MPH
rain 1hr
in
rain 24hr
in
rain mn
in
humidity
%
barometer
mb
20260505130200 43 43 0.0 0.0 0.00 0.00 0.00 75 998.2
20260505124653 43 43 0.0 0.0 0.00 0.00 0.00 75 997.9
20260505124143 42 43 0.0 0.0 0.00 0.00 0.00 76 997.8
20260505123643 43 43 0.0 0.0 0.00 0.00 0.00 76 997.8
20260505123136 42 43 0.0 0.0 0.00 0.00 0.00 76 997.7
20260505122059 42 43 0.0 2.0 0.00 0.00 0.00 75 997.7
20260505121602 42 43 0.0 5.0 0.00 0.00 0.00 75 997.6
20260505120544 42 43 1.0 5.0 0.00 0.00 0.00 75 997.6
20260505120029 42 116 4.0 5.0 0.00 0.00 0.00 75 997.6
20260505115020 42 45 0.0 0.0 0.00 0.00 0.00 76 997.6
20260505114513 42 45 0.0 0.0 0.00 0.00 0.00 75 997.6
20260505114012 42 45 0.0 0.0 0.00 0.00 0.00 75 997.5
20260505113509 42 45 0.0 0.0 0.00 0.00 0.00 75 997.5
20260505112500 42 45 0.0 0.0 0.00 0.00 0.00 74 997.4
20260505111958 42 45 0.0 0.0 0.00 0.00 0.00 73 997.2
20260505110951 42 45 0.0 0.0 0.00 0.00 0.00 73 997.4
20260505110449 41 45 0.0 0.0 0.00 0.00 0.00 74 997.2
20260505102219 42 45 0.0 0.0 0.00 0.00 0.00 70 996.9
20260505101715 42 45 0.0 0.0 0.00 0.00 0.00 69 996.8
20260505101214 42 45 0.0 0.0 0.00 0.00 0.00 69 996.8
20260505100647 42 45 0.0 0.0 0.00 0.00 0.00 69 996.8
20260505100112 43 45 0.0 0.0 0.00 0.00 0.00 69 996.8
20260505095607 43 45 0.0 0.0 0.00 0.00 0.00 69 996.7
20260505095058 42 45 0.0 0.0 0.00 0.00 0.00 69 996.5
20260505094544 42 45 0.0 0.0 0.00 0.00 0.00 69 996.5
20260505094032 42 45 0.0 0.0 0.00 0.00 0.00 68 996.5
20260505093523 42 45 0.0 0.0 0.00 0.00 0.00 68 996.4
20260505093002 43 45 0.0 0.0 0.00 0.00 0.00 67 996.4
20260505092501 43 45 0.0 0.0 0.00 0.00 0.00 67 996.5
20260505091449 44 45 0.0 0.0 0.00 0.00 0.00 67 996.4
20260505090947 44 45 0.0 0.0 0.00 0.00 0.00 66 996.4
20260505085933 44 45 0.0 0.0 0.00 0.00 0.00 65 996.4
20260505085408 44 45 0.0 0.0 0.00 0.00 0.00 65 996.3
20260505084835 44 45 0.0 0.0 0.00 0.00 0.00 64 996.3
20260505084313 44 45 0.0 3.0 0.00 0.00 0.00 64 996.4
20260505083815 44 45 0.0 3.0 0.00 0.00 0.00 64 996.4
20260505083309 45 45 1.0 3.0 0.00 0.00 0.00 63 996.4
20260505082243 46 358 0.0 0.0 0.00 0.00 0.00 63 996.4
20260505080215 47 358 0.0 0.0 0.00 0.00 0.00 62 996.3
20260505075715 47 358 0.0 0.0 0.00 0.00 0.00 61 996.3
20260505075150 47 358 0.0 0.0 0.00 0.00 0.00 61 996.3
20260505074643 47 358 0.0 0.0 0.00 0.00 0.00 62 996.2
20260505073623 48 358 0.0 0.0 0.00 0.00 0.00 60 996.3
20260505072619 48 358 0.0 0.0 0.00 0.00 0.00 61 996.2
20260505072114 48 358 0.0 0.0 0.00 0.00 0.00 60 996.2
20260505071556 48 358 0.0 0.0 0.00 0.00 0.00 59 996.0
20260505071045 48 358 0.0 0.0 0.00 0.00 0.00 59 996.0
20260505070543 49 358 0.0 0.0 0.00 0.00 0.00 59 996.0
20260505070038 49 358 0.0 0.0 0.00 0.00 0.00 58 995.8
20260505065529 49 358 0.0 3.0 0.00 0.00 0.00 58 995.7
20260505064503 49 358 2.0 5.0 0.00 0.00 0.00 58 995.6
20260505063957 49 4 5.0 5.0 0.00 0.00 0.00 57 995.6
20260505063453 50 257 0.0 0.0 0.00 0.00 0.00 57 995.6
20260505062445 50 257 0.0 0.0 0.00 0.00 0.00 56 995.6
20260505061932 51 257 0.0 0.0 0.00 0.00 0.00 57 995.6
20260505061428 51 257 0.0 0.0 0.00 0.00 0.00 56 995.5
20260505060911 51 257 0.0 0.0 0.00 0.00 0.00 54 995.5
20260505060344 51 257 0.0 0.0 0.00 0.00 0.00 54 995.4
20260505055816 51 257 0.0 0.0 0.00 0.00 0.00 53 995.4
20260505054805 52 257 0.0 0.0 0.00 0.00 0.00 52 995.4
20260505054242 52 257 0.0 4.0 0.00 0.00 0.00 51 995.3
20260505053738 52 257 0.0 4.0 0.00 0.00 0.00 50 995.3
20260505053236 53 257 0.0 11.0 0.00 0.00 0.00 49 995.3
20260505052723 53 7 0.0 11.0 0.00 0.00 0.00 49 995.3
20260505052212 52 350 6.0 11.0 0.00 0.00 0.00 49 995.2
20260505051713 52 358 5.0 10.0 0.00 0.00 0.00 50 995.2
20260505051211 52 336 6.0 9.0 0.00 0.00 0.00 51 995.0
20260505050711 52 5 3.0 9.0 0.00 0.00 0.00 49 995.0
20260505050201 53 42 6.0 8.0 0.00 0.00 0.00 50 995.0
20260505041646 54 9 4.0 7.0 0.00 0.00 0.00 46 994.8
20260505040144 56 16 3.0 5.0 0.00 0.00 0.00 45 994.7
20260505035633 56 4 0.0 3.0 0.00 0.00 0.00 44 994.7
20260505035120 57 7 0.0 6.0 0.00 0.00 0.00 43 994.6
20260505034609 58 63 3.0 6.0 0.00 0.00 0.00 40 994.5
20260505034109 59 1 0.0 6.0 0.00 0.00 0.00 40 994.5
20260505033546 59 4 4.0 6.0 0.00 0.00 0.00 39 994.5
20260505033045 60 28 0.0 3.0 0.00 0.00 0.00 39 994.2
20260505032539 60 30 0.0 3.0 0.00 0.00 0.00 38 994.2
20260505032037 61 358 0.0 0.0 0.00 0.00 0.00 39 994.1
20260505031531 61 358 0.0 0.0 0.00 0.00 0.00 39 994.1
20260505030523 63 358 0.0 0.0 0.00 0.00 0.00 36 993.9
20260505030022 63 358 0.0 0.0 0.00 0.00 0.00 34 993.9
20260505025514 64 358 0.0 0.0 0.00 0.00 0.00 34 993.8
20260505025015 65 358 0.0 0.0 0.00 0.00 0.00 34 993.8
20260505024510 66 358 0.0 0.0 0.00 0.00 0.00 33 993.6
20260505023957 66 358 0.0 0.0 0.00 0.00 0.00 31 993.5
20260505022929 67 358 0.0 3.0 0.00 0.00 0.00 27 993.4
20260505022425 67 358 0.0 6.0 0.00 0.00 0.00 29 993.4
20260505021914 68 106 0.0 6.0 0.00 0.00 0.00 29 993.4
20260505021359 69 32 0.0 3.0 0.00 0.00 0.00 28 993.3
20260505020345 71 46 2.0 5.0 0.00 0.00 0.00 25 993.3
20260505015847 71 123 0.0 3.0 0.00 0.00 0.00 24 993.3
20260505015336 72 123 0.0 6.0 0.00 0.00 0.00 23 993.3
20260505014246 74 37 0.0 8.0 0.00 0.00 0.00 20 993.3
20260505013740 75 19 5.0 15.0 0.00 0.00 0.00 20 993.3
20260505013241 76 305 0.0 15.0 0.00 0.00 0.00 20 993.3
20260505012739 77 284 0.0 14.0 0.00 0.00 0.00 19 993.4
20260505012237 77 302 2.0 11.0 0.00 0.00 0.00 20 993.4
20260505011736 77 291 5.0 12.0 0.00 0.00 0.00 20 993.4
20260505011228 77 292 6.0 18.0 0.00 0.00 0.00 20 993.4
20260505010727 76 104 1.0 18.0 0.00 0.00 0.00 19 993.4
20260505010214 76 23 8.0 18.0 0.00 0.00 0.00 17 993.4
20260505005717 77 358 5.0 15.0 0.00 0.00 0.00 17 993.4
20260505004708 77 14 1.0 15.0 0.00 0.00 0.00 18 993.6
20260505004208 77 21 5.0 15.0 0.00 0.00 0.00 17 993.5
20260505003706 77 1 4.0 14.0 0.00 0.00 0.00 18 993.5
20260505003206 77 241 1.0 14.0 0.00 0.00 0.00 18 993.6
20260505002705 77 324 6.0 17.0 0.00 0.00 0.00 17 993.6
20260505002203 78 275 3.0 17.0 0.00 0.00 0.00 17 993.6
20260505001703 79 329 11.0 17.0 0.00 0.00 0.00 16 993.5
20260505000701 79 16 2.0 15.0 0.00 0.00 0.00 16 993.5
20260504235701 80 234 6.0 11.0 0.00 0.00 0.00 16 993.4
20260504235159 79 262 6.0 14.0 0.00 0.00 0.00 16 993.5
20260504234658 78 147 4.0 14.0 0.00 0.00 0.00 17 993.5
20260504234201 78 279 3.0 14.0 0.00 0.00 0.00 16 993.5
20260504233656 77 251 0.0 11.0 0.00 0.00 0.00 18 993.5
20260504233154 77 277 0.0 11.0 0.00 0.00 0.00 18 993.6
20260504232645 76 222 1.0 11.0 0.00 0.00 0.00 18 993.6
20260504232130 76 22 5.0 9.0 0.00 0.00 0.00 18 993.8
20260504231121 76 309 4.0 9.0 0.00 0.00 0.00 18 993.8
20260504230620 78 14 5.0 8.0 0.00 0.00 0.00 17 993.6
20260504230119 79 309 1.0 10.0 0.00 0.00 0.00 17 993.9
20260504225620 80 210 4.0 11.0 0.00 0.00 0.00 16 993.8
20260504225118 81 226 7.0 11.0 0.00 0.00 0.00 15 993.9
20260504223554 80 216 8.0 14.0 0.00 0.00 0.00 17 994.1
20260504223051 79 46 6.0 14.0 0.00 0.00 0.00 18 994.2
20260504222552 79 260 7.0 12.0 0.00 0.00 0.00 18 994.2
20260504221549 80 178 7.0 15.0 0.00 0.00 0.00 18 994.3
20260504221048 79 260 1.0 16.0 0.00 0.00 0.00 17 994.3
20260504220547 78 161 5.0 16.0 0.00 0.00 0.00 18 994.5
20260504215046 78 160 0.0 15.0 0.00 0.00 0.00 18 994.7
20260504214543 78 157 7.0 15.0 0.00 0.00 0.00 17 994.7
20260504213541 79 212 8.0 17.0 0.00 0.00 0.00 18 994.9
20260504213039 79 279 8.0 15.0 0.00 0.00 0.00 17 995.0
20260504212540 79 73 7.0 18.0 0.00 0.00 0.00 17 995.2
20260504212036 79 229 3.0 18.0 0.00 0.00 0.00 17 995.2
20260504211535 78 216 7.0 16.0 0.00 0.00 0.00 18 995.0
20260504211034 78 248 7.0 14.0 0.00 0.00 0.00 18 995.3
20260504210534 77 230 6.0 11.0 0.00 0.00 0.00 18 995.3
20260504210032 76 208 6.0 11.0 0.00 0.00 0.00 18 995.4
20260504205534 76 132 4.0 14.0 0.00 0.00 0.00 17 995.4
20260504205029 77 262 7.0 15.0 0.00 0.00 0.00 18 995.4
20260504204527 77 250 6.0 15.0 0.00 0.00 0.00 19 995.5
20260504204029 77 274 7.0 14.0 0.00 0.00 0.00 17 995.5
20260504203016 77 57 5.0 13.0 0.00 0.00 0.00 18 995.6
20260504202514 77 229 3.0 16.0 0.00 0.00 0.00 17 995.7
20260504201503 77 250 6.0 13.0 0.00 0.00 0.00 19 995.7
20260504200446 75 181 8.0 16.0 0.00 0.00 0.00 20 996.0
20260504195946 75 198 6.0 16.0 0.00 0.00 0.00 21 996.0
20260504194944 75 241 7.0 19.0 0.00 0.00 0.00 18 996.0
20260504194443 76 198 3.0 19.0 0.00 0.00 0.00 19 996.1
20260504193941 75 185 5.0 19.0 0.00 0.00 0.00 20 996.1
20260504193441 75 322 8.0 16.0 0.00 0.00 0.00 19 996.1
20260504192939 75 210 6.0 16.0 0.00 0.00 0.00 22 996.2
20260504192439 75 234 9.0 15.0 0.00 0.00 0.00 23 996.2
20260504191937 74 281 5.0 14.0 0.00 0.00 0.00 23 996.3
20260504191436 74 208 10.0 14.0 0.00 0.00 0.00 23 996.4
20260504190433 73 258 10.0 15.0 0.00 0.00 0.00 23 996.5
20260504185932 73 220 7.0 17.0 0.00 0.00 0.00 22 996.7
20260504185431 73 265 7.0 17.0 0.00 0.00 0.00 25 996.5
20260504184430 72 175 7.0 16.0 0.00 0.00 0.00 27 996.8
20260504183928 72 310 4.0 16.0 0.00 0.00 0.00 27 996.9
20260504183428 71 244 8.0 16.0 0.00 0.00 0.00 27 996.9
20260504182426 71 210 10.0 15.0 0.00 0.00 0.00 28 997.0
20260504181925 71 237 3.0 17.0 0.00 0.00 0.00 28 997.1
20260504180921 70 234 6.0 17.0 0.00 0.00 0.00 30 997.2
20260504180421 69 226 7.0 11.0 0.00 0.00 0.00 31 997.2
20260504175918 69 171 2.0 17.0 0.00 0.00 0.00 32 997.4
20260504175417 68 174 8.0 17.0 0.00 0.00 0.00 34 997.5
20260504174915 67 216 7.0 14.0 0.00 0.00 0.00 35 997.5
20260504174413 67 205 4.0 14.0 0.00 0.00 0.00 35 997.5
20260504173913 67 226 4.0 14.0 0.00 0.00 0.00 35 997.6
20260504173409 66 143 6.0 12.0 0.00 0.00 0.00 37 997.6
20260504172909 65 205 3.0 8.0 0.00 0.00 0.00 38 997.7
20260504172408 64 216 1.0 7.0 0.00 0.00 0.00 40 997.8
20260504170902 61 130 0.0 0.0 0.00 0.00 0.00 44 997.8
20260504170353 61 130 0.0 0.0 0.00 0.00 0.00 44 997.9
20260504160155 53 130 0.0 0.0 0.00 0.00 0.00 61 998.6
20260504151015 44 130 0.0 0.0 0.00 0.00 0.00 76 999.1
20260504150514 43 130 0.0 0.0 0.00 0.00 0.00 77 999.2
20260504140903 35 338 0.0 0.0 0.00 0.00 0.00 86 999.6
20260504140354 35 338 0.0 0.0 0.00 0.00 0.00 85 999.6